This is the latest recevied weather packets stored in our database for station/object DG3GAI-6. If no packets are shown the sender has not sent any weather packets the latest 10 day(s).
| Time | Temp. | Humidity | Pressure | Rain* | Wind** | Luminosity | Snow |
|---|---|---|---|---|---|---|---|
| 1778277868 | 12.22° C | 92% | 1021 hPa | - | - | - | - |
| 1778276060 | 12.22° C | 92% | 1021 hPa | - | - | - | - |
| 1778274253 | 12.22° C | 91% | 1021 hPa | - | - | - | - |
| 1778272446 | 12.78° C | 92% | 1021 hPa | - | - | - | - |
| 1778270639 | 12.78° C | 93% | 1021 hPa | - | - | - | - |
| 1778268831 | 12.78° C | 94% | 1021 hPa | - | - | - | - |
| 1778267024 | 12.78° C | 93% | 1020 hPa | - | - | - | - |
| 1778265217 | 13.33° C | 94% | 1019 hPa | - | - | - | - |
| 1778263409 | 13.89° C | 93% | 1019 hPa | - | - | - | - |
| 1778261602 | 13.89° C | 93% | 1019 hPa | - | - | - | - |
| 1778259795 | 13.89° C | 89% | 1019 hPa | - | - | - | - |
| 1778257988 | 13.33° C | 81% | 1019 hPa | - | - | - | - |
| 1778256180 | 13.33° C | 82% | 1019 hPa | - | - | - | - |
| 1778254373 | 13.89° C | 77% | 1019 hPa | - | - | - | - |
| 1778252566 | 13.33° C | 76% | 1018 hPa | - | - | - | - |
| 1778250759 | 13.89° C | 72% | 1019 hPa | - | - | - | - |
| 1778248951 | 13.33° C | 75% | 1019 hPa | - | - | - | - |
| 1778247144 | 13.33° C | 74% | 1019 hPa | - | - | - | - |
| 1778245337 | 13.33° C | 76% | 1019 hPa | - | - | - | - |
| 1778243530 | 12.78° C | 78% | 1019 hPa | - | - | - | - |
| 1778241722 | 12.78° C | 78% | 1019 hPa | - | - | - | - |
| 1778239915 | 12.78° C | 85% | 1019 hPa | - | - | - | - |
| 1778238108 | 12.22° C | 85% | 1019 hPa | - | - | - | - |
| 1778236301 | 11.67° C | 89% | 1019 hPa | - | - | - | - |
| 1778234493 | 10.56° C | 89% | 1020 hPa | - | - | - | - |
* Rain since midnight (hover to see other rain measurements)
** Current wind speed in m/s (hover to see current wind gust speed)